カタログに戻る

STARLINK-35496

運用中通信VLEO
NORAD 66114·PAYLOAD·🇺🇸 United States

打ち上げ Oct 22, 2025 から Vandenberg Space Force Base

Loading…

次のパス (今後24時間)

TLE

最新Source: CelesTrak SupGP

元期: Sep 15, 2026, 02:51 UTC

1 66114C 25237A   26258.11923611 -.00047958  00000+0 -14170-2 0  2581
2 66114  53.1572 236.5994 0001372  91.2773  45.2685 15.34412763    10

AllMySatでSTARLINK-35496をリアルタイム追跡

Download on the App Store